GW3084 Weather Reports


Display with metric or nautical units.
time (UTC)temp
F
wind
direction
speed
MPH
gust
MPH
rain 1hr
in
rain 24hr
in
rain mn
in
humidity
%
barometer
mb
20260506034030 45 319 1.0 6.0 0.00 0.00 0.00 44 1011.0
20260506033027 45 320 2.0 6.0 0.00 0.00 0.00 43 1011.1
20260506032044 46 327 1.0 4.0 0.00 0.00 0.00 43 1010.9
20260506031021 46 327 2.0 8.0 0.00 0.00 0.00 43 1011.0
20260506030017 46 323 1.0 4.0 0.00 0.00 0.00 42 1010.7
20260506025034 46 333 2.0 7.0 0.00 0.00 0.00 42 1010.7
20260506024031 47 332 3.0 10.0 0.00 0.00 0.00 41 1010.6
20260506023047 47 328 3.0 10.0 0.00 0.00 0.00 41 1010.5
20260506022024 47 332 3.0 8.0 0.00 0.00 0.00 41 1010.4
20260506021021 47 328 3.0 7.0 0.00 0.00 0.00 41 1010.4
20260506020017 47 327 3.0 7.0 0.00 0.00 0.00 40 1010.1
20260506015054 48 332 2.0 8.0 0.00 0.00 0.00 40 1010.0
20260506014052 48 326 3.0 9.0 0.00 0.00 0.00 40 1009.8
20260506013027 48 339 2.0 10.0 0.00 0.00 0.00 40 1009.7
20260506012045 49 328 3.0 9.0 0.00 0.00 0.00 39 1009.4
20260506011021 49 333 3.0 8.0 0.00 0.00 0.00 38 1009.3
20260506010017 50 338 4.0 9.0 0.00 0.00 0.00 38 1009.0
20260506005039 50 326 5.0 13.0 0.00 0.00 0.00 36 1009.0
20260506004031 51 337 4.0 9.0 0.00 0.00 0.00 35 1009.0
20260506003029 52 330 5.0 15.0 0.00 0.00 0.00 34 1008.8
20260506002024 53 325 6.0 18.0 0.00 0.00 0.00 33 1008.8
20260506001021 54 312 5.0 16.0 0.00 0.00 0.00 32 1008.7
20260506000038 55 322 4.0 13.0 0.00 0.00 0.00 32 1008.6
20260505235035 55 322 5.0 16.0 0.00 0.00 0.00 31 1008.6
20260505234031 56 322 5.0 16.0 0.00 0.00 0.00 29 1008.4
20260505233028 57 314 3.0 10.0 0.00 0.00 0.00 29 1008.4
20260505232024 55 324 3.0 9.0 0.00 0.00 0.00 30 1008.3
20260505231022 56 309 4.0 14.0 0.00 0.00 0.00 29 1008.2
20260505230037 58 302 5.0 19.0 0.00 0.00 0.00 28 1008.2
20260505225034 58 306 5.0 14.0 0.00 0.00 0.00 28 1008.2
20260505224052 59 299 4.0 14.0 0.00 0.00 0.00 27 1008.0
20260505223028 59 295 4.0 16.0 0.00 0.00 0.00 27 1008.1
20260505222024 59 311 6.0 17.0 0.00 0.00 0.00 26 1008.1
20260505221021 59 317 5.0 14.0 0.00 0.00 0.00 25 1008.1
20260505220018 59 309 6.0 17.0 0.00 0.00 0.00 26 1008.0
20260505215034 59 306 6.0 22.0 0.00 0.00 0.00 25 1007.9
20260505214031 59 305 6.0 21.0 0.00 0.00 0.00 25 1007.9
20260505213028 60 290 6.0 15.0 0.00 0.00 0.00 25 1008.0
20260505212024 60 308 6.0 16.0 0.00 0.00 0.00 26 1008.0
20260505211041 60 291 6.0 16.0 0.00 0.00 0.00 26 1007.8
20260505210018 60 297 6.0 14.0 0.00 0.00 0.00 26 1007.7
20260505205034 60 279 6.0 19.0 0.00 0.00 0.00 26 1007.9
20260505204031 60 283 6.0 13.0 0.00 0.00 0.00 25 1007.9
20260505203028 60 294 5.0 13.0 0.00 0.00 0.00 26 1008.0
20260505202045 60 296 6.0 23.0 0.00 0.00 0.00 25 1007.8
20260505201021 60 281 7.0 15.0 0.00 0.00 0.00 25 1007.9
20260505200058 60 297 5.0 16.0 0.00 0.00 0.00 25 1007.9
20260505195007 60 344 4.0 13.0 0.00 0.00 0.00 27 1008.0
20260505194045 59 296 6.0 21.0 0.00 0.00 0.00 27 1007.8
20260505193022 59 288 6.0 17.0 0.00 0.00 0.00 28 1007.7
20260505192200 59 291 7.0 17.0 0.00 0.00 0.00 27 1007.7
20260505191036 59 269 7.0 18.0 0.00 0.00 0.00 28 1007.6
20260505190032 59 289 7.0 23.0 0.00 0.00 0.00 26 1007.4
20260505185028 59 275 7.0 18.0 0.00 0.00 0.00 27 1007.4
20260505184025 60 295 7.0 16.0 0.00 0.00 0.00 28 1007.4
20260505183022 59 304 5.0 14.0 0.00 0.00 0.00 29 1007.3
20260505182039 59 282 6.0 13.0 0.00 0.00 0.00 30 1007.3
20260505181035 59 283 6.0 16.0 0.00 0.00 0.00 31 1007.4
20260505180052 59 298 5.0 18.0 0.00 0.00 0.00 31 1007.3
20260505175028 59 283 5.0 15.0 0.00 0.00 0.00 32 1007.4
20260505174026 58 277 6.0 18.0 0.00 0.00 0.00 32 1007.4
20260505173022 58 298 6.0 18.0 0.00 0.00 0.00 31 1007.3
20260505172018 58 305 6.0 15.0 0.00 0.00 0.00 32 1007.3
20260505171035 58 277 7.0 21.0 0.00 0.00 0.00 31 1007.3
20260505170053 57 288 6.0 15.0 0.00 0.00 0.00 33 1007.3
20260505165028 56 288 6.0 15.0 0.00 0.00 0.00 34 1007.3
20260505164026 56 268 6.0 16.0 0.00 0.00 0.00 33 1007.3
20260505163021 55 287 6.0 17.0 0.00 0.00 0.00 33 1007.4
20260505162018 57 273 5.0 13.0 0.00 0.00 0.00 32 1007.3
20260505161035 56 283 6.0 16.0 0.00 0.00 0.00 34 1007.3
20260505153023 54 267 6.0 13.0 0.00 0.00 0.00 34 1007.4
20260505152058 53 274 5.0 15.0 0.00 0.00 0.00 35 1007.3
20260505151035 54 283 6.0 15.0 0.00 0.00 0.00 35 1007.4
20260505125028 51 266 4.0 11.0 0.00 0.00 0.00 39 1007.7
20260505124025 51 263 4.0 10.0 0.00 0.00 0.00 38 1007.4
20260505123042 51 270 3.0 7.0 0.00 0.00 0.00 38 1007.1
20260505122018 50 255 2.0 6.0 0.00 0.00 0.00 40 1006.9
20260505121035 48 258 2.0 8.0 0.00 0.00 0.00 43 1006.7
20260505120030 45 272 2.0 4.0 0.00 0.00 0.00 46 1006.6
20260505115028 44 277 1.0 2.0 0.00 0.00 0.00 48 1006.6
20260505114022 43 275 0.0 3.0 0.00 0.00 0.00 49 1006.6
20260505113018 42 274 0.0 2.0 0.00 0.00 0.00 50 1006.6
20260505112035 42 278 0.0 2.0 0.00 0.00 0.00 50 1006.6
20260505111031 42 276 0.0 2.0 0.00 0.00 0.00 50 1006.5
20260505102034 43 280 0.0 2.0 0.00 0.00 0.00 48 1005.8
20260505101028 43 274 0.0 2.0 0.00 0.00 0.00 47 1005.8
20260505100025 44 302 0.0 1.0 0.00 0.00 0.00 47 1005.7
20260505095019 44 308 1.0 2.0 0.00 0.00 0.00 46 1005.6
20260505094017 44 315 1.0 8.0 0.00 0.00 0.00 46 1005.6
20260505093032 44 314 1.0 3.0 0.00 0.00 0.00 45 1005.6
20260505092028 45 312 2.0 9.0 0.00 0.00 0.00 45 1005.2
20260505091025 45 313 2.0 10.0 0.00 0.00 0.00 44 1004.9
20260505090022 46 318 4.0 13.0 0.00 0.00 0.00 44 1004.7
20260505085038 46 318 4.0 14.0 0.00 0.00 0.00 46 1004.4
20260505084034 47 320 5.0 16.0 0.00 0.00 0.00 47 1004.1
20260505083109 47 318 5.0 15.0 0.00 0.00 0.00 47 1003.9
20260505082025 47 317 4.0 14.0 0.00 0.00 0.00 47 1003.6
20260505081021 48 331 3.0 14.0 0.00 0.00 0.00 47 1003.5
20260505080017 48 345 2.0 9.0 0.00 0.00 0.00 46 1003.4
20260505075033 48 317 3.0 9.0 0.00 0.00 0.00 46 1003.3
20260505074049 49 322 4.0 11.0 0.00 0.00 0.00 45 1003.2
20260505073045 49 324 4.0 11.0 0.00 0.00 0.00 45 1003.2
20260505072021 50 322 4.0 11.0 0.00 0.00 0.00 44 1003.2
20260505071015 50 323 5.0 14.0 0.00 0.00 0.00 43 1003.1
20260505070030 51 323 5.0 13.0 0.00 0.00 0.00 43 1003.0
20260505065026 51 326 5.0 16.0 0.00 0.00 0.00 43 1003.0
20260505064018 51 313 3.0 10.0 0.00 0.00 0.00 44 1002.9
20260505063032 52 314 3.0 10.0 0.00 0.00 0.00 43 1002.8
20260505062027 53 315 3.0 13.0 0.00 0.00 0.00 43 1002.7
20260505061021 53 316 4.0 13.0 0.00 0.00 0.00 43 1002.5
20260505060016 53 319 4.0 13.0 0.00 0.00 0.00 45 1002.3
20260505055052 54 322 5.0 11.0 0.00 0.00 0.00 45 1002.1
20260505054028 54 318 3.0 8.0 0.00 0.00 0.00 45 1002.0
20260505053022 54 327 3.0 8.0 0.00 0.00 0.00 44 1001.9
20260505052019 55 320 4.0 10.0 0.00 0.00 0.00 44 1001.6
20260505051032 55 322 4.0 16.0 0.00 0.00 0.00 44 1001.4
20260505041028 58 314 3.0 10.0 0.00 0.00 0.00 38 1000.4
20260505040025 58 300 3.0 10.0 0.00 0.00 0.00 38 1000.3
20260505035022 59 310 3.0 9.0 0.00 0.00 0.00 38 1000.3